This is the latest recevied weather packets stored in our database for station/object KD4MBW. If no packets are shown the sender has not sent any weather packets the latest 10 day(s).
| Time | Temp. | Humidity | Pressure | Rain* | Wind** | Luminosity | Snow |
|---|---|---|---|---|---|---|---|
| 1787598735 | 32.78° C | 70% | 1015.1 hPa | 0 mm | - | 509 W/m² | - |
| 1787598429 | 32.78° C | 71% | 1015.1 hPa | 0 mm | - | 512 W/m² | - |
| 1787598124 | 32.78° C | 71% | 1015.2 hPa | 0 mm | - | 621 W/m² | - |
| 1787597820 | 33.33° C | 71% | 1015.2 hPa | 0 mm | - | 673 W/m² | - |
| 1787597514 | 32.78° C | 74% | 1015.7 hPa | 0 mm | - | 767 W/m² | - |
| 1787597213 | 33.33° C | 72% | 1016 hPa | 0 mm | - | 739 W/m² | - |
| 1787596908 | 33.33° C | 71% | 1015.7 hPa | 0 mm | - | 472 W/m² | - |
| 1787596605 | 33.89° C | 69% | 1015.8 hPa | 0 mm | - | 683 W/m² | - |
| 1787596299 | 33.89° C | 68% | 1016 hPa | 0 mm | - | 701 W/m² | - |
| 1787595996 | 33.33° C | 68% | 1016.1 hPa | 0 mm | - | 765 W/m² | - |
| 1787595691 | 33.89° C | 67% | 1015.9 hPa | 0 mm | - | 777 W/m² | - |
| 1787595386 | 33.33° C | 70% | 1015.6 hPa | 0 mm | - | 640 W/m² | - |
| 1787595081 | 33.33° C | 67% | 1015.7 hPa | 0 mm | - | 783 W/m² | - |
| 1787594781 | 33.33° C | 72% | 1015.7 hPa | 0 mm | - | 756 W/m² | - |
| 1787594475 | 32.78° C | 72% | 1015.8 hPa | 0 mm | - | 630 W/m² | - |
| 1787594174 | 33.33° C | 73% | 1015.9 hPa | 0 mm | - | 326 W/m² | - |
| 1787593869 | 33.89° C | 69% | 1015.7 hPa | 0 mm | - | 542 W/m² | - |
| 1787593564 | 33.33° C | 71% | 1015.9 hPa | 0 mm | - | 586 W/m² | - |
| 1787593259 | 33.33° C | 73% | 1016 hPa | 0 mm | - | 615 W/m² | - |
| 1787592954 | 33.89° C | 73% | 1015.8 hPa | 0 mm | - | 327 W/m² | - |
| 1787592644 | 33.33° C | 75% | 1016 hPa | 0 mm | - | 872 W/m² | - |
| 1787592343 | 32.78° C | 76% | 1016.1 hPa | 0 mm | - | 252 W/m² | - |
| 1787592039 | 33.33° C | 75% | 1015.8 hPa | 0 mm | - | 410 W/m² | - |
| 1787591733 | 32.78° C | 73% | 1016.1 hPa | 0 mm | - | 412 W/m² | - |
| 1787591429 | 33.89° C | 71% | 1016.2 hPa | 0 mm | - | 223 W/m² | - |
* Rain latest hour (hover to see other rain measurements)
** Current wind speed in m/s (hover to see current wind gust speed)